"Pseudo-MPEC" for P10QwrT

Created 2019 Aug 14 20:07:11 UT using Find_Orb

Click here for an explanation of pseudo-MPECs

 
 Astrometry: 
     P10QwrT  C2019 07 10bwPiFkR.f8Re+Bf5w(?LOZ\IeHN)@uE=4L%J4Fg1Gcw\aZUgcjIfF51
     P10QwrT  C2019 07 10/K;9k6^/s'CR+WRAstrometryGxcnb;*#O:j8*m%m?t,0dks[T$JF51
     P10QwrT  C2019 07 10_5#,4@redacted;Tv59ydSCW766*Udk@N6m/.HgclickX-#5n70gF51
     P10QwrT  C2019 07 10yo@cu9yex/OCO#YBggDTyRWiHSV5RLUJNEBrdt'9=VqPR^qwlJ)$F51
     P10QwrT  C2019 07 139]LF9bye=#n6I6.g05''ERWQj(N\RW`Fn3l.OEsFIA\LWj9AY@HXF51
     P10QwrT  C2019 07 13LY0a^y:p_`dLRL!xH!A^My)f@aiu3+PdCO$mhdXop*Jn*LoL1v%:F51
     P10QwrT  C2019 07 13cy0JB+]E6g/4p3'9w_.GD2p(_e.pgd%gt)/Z@TJ.c^$vf=M%%u#8F51
     P10QwrT  C2019 07 13k`w0nGL6e+#942sUAD=*(u[Hm.Nr]Qd(7;m`bsv'%SAmen,8?ku;F51
     P10QwrT  C2019 08 04LC.here4qZr#ETn`GT#A*^]%mforINp/f5;*L_l;0M33Lg(2i6i0F51
     P10QwrT  C2019 08 04AN0$-W'5Mk=kq!rVn3gATmA6Y0M#tn+^L8T(CE*:jU2dOS+)aRKxF51
     P10QwrT  C2019 08 04e5%h0ssHyfdSnbRRw-r9s\CgLhsw@_gE'wrUEqAd%iL1u(.(!HV]F51
     P10QwrT  C2019 08 09E6%qXRIxk6wsgI(fA#*l0eg9NInPY+up0lN=;'.+$[rN=9I@C#2TF51
     P10QwrT  C2019 08 09hSmW;l6Fg,145N)65@LaHiq0DNvx=*E3a`Zw`explanation!^q5F51
     P10QwrT  C2019 08 09sy?5jT/;X_p)I:XFlOP7kQPhkR=AS`B`nRddZGeNYe@.oW%`bU)SF51
     P10QwrT  C2019 08 09a/p)cgi_M87*UF6#ed\Q*EF;J-WY60Ay[JmO_m3;IYQLyobPS-PnF51
     P10QwrT ^C2019 08 11.54901100 11 04.758-18 50 09.45   ~8BKq 21.33GVNEOCP568
     P10QwrT ^C2019 08 11.55021300 11 04.804-18 50 09.90   ~8BKq 21.36GVNEOCP568
     P10QwrT ^C2019 08 11.55140000 11 04.851-18 50 10.33   ~8BKq 21.33GVNEOCP568
     P10QwrT ^C2019 08 14.51446000 13 10.177-19 08 54.84   ~8EIq 21.19GVNEOCP568
     P10QwrT ^C2019 08 14.51565000 13 10.211-19 08 55.36   ~8EIq 20.88GVNEOCP568
     P10QwrT ^C2019 08 14.51683800 13 10.256-19 08 55.79   ~8EIq 20.82GVNEOCP568

Station data:
(568) Mauna Kea  (N19.826116 W155.472200)  US/Hawaii.
(F51) Pan-STARRS 1, Haleakala  (N20.707235 W156.255910)  US/Hawaii.
   Observers N. Primak, A. Schultz, S. Watters, J. Thiel, T. Goggia. Measurer
   PS1 Science Consortium. 1.8-m Ritchey-Chrétien + CCD.

Orbital elements:  P10QwrT
   Perihelion 2019 Sep 2.330874 +/- 0.0348 TT =  7:56:27 (JD 2458728.830874)
Epoch 2019 Aug 14.0 TT = JDT 2458709.5   Earth MOID: 0.5336   AutoNEOCP
M 354.34649165 +/- 0.013            (J2000 ecliptic)
n   0.29246004 +/- 0.00016          Peri.  268.54208 +/- 0.030
a   2.24780357 +/- 0.000817         Node    76.10314 +/- 0.010
e   0.3249846 +/- 0.00018           Incl.    7.40471 +/- 0.0013
P   3.37                   H 20.8   G  0.15   U  6.9  
q 1.51730194 +/- 0.000148    Q 2.97830519 +/- 0.00149
From 21 observations 2019 July 10-Aug. 14; mean residual 0".08
Residuals in arcseconds: 
190710 F51  .12+  .06+    190713 F51  .08-  .08-    190809 F51  .05-  .00     
190710 F51  .21-  .14+    190804 F51  .14+  .01+    190811 568  .04+  .05-    
190710 F51  .11-  .08+    190804 F51  .13-  .07+    190811 568  .02+  .05-    
190710 F51  .18+  .04+    190804 F51  .01-  .01-    190811 568  .01+  .04-    
190713 F51  .08+  .08-    190809 F51  .09-  .07+    190814 568  .01+  .02+    
190713 F51  .07-  .17-    190809 F51  .12+  .01-    190814 568  .06-  .03-    
190713 F51  .09+  .05-    190809 F51  .06-  .10+    190814 568  .03+  .00     

Ephemerides (geocentric):
Date (UTC) HH   RA              Dec         delta   r     elong  mag " sig PA
---- -- -- --  -------------   -----------  ------ ------ -----  --- ---- ---
2019 08 14 20  00 13 22.146   -19 10 48.92  .59295 1.5244 142.0 21.7 .143  18
2019 08 14 21  00 13 23.716   -19 11 05.06  .59279 1.5244 142.0 21.7 .144  18
2019 08 14 22  00 13 25.281   -19 11 21.19  .59263 1.5244 142.0 21.7 .146  18
2019 08 14 23  00 13 26.842   -19 11 37.33  .59248 1.5243 142.0 21.7 .148  18
2019 08 15 00  00 13 28.399   -19 11 53.48  .59232 1.5243 142.1 21.7 .150  18
2019 08 15 01  00 13 29.951   -19 12 09.64  .59217 1.5243 142.1 21.7 .152  18
2019 08 15 02  00 13 31.499   -19 12 25.80  .59201 1.5242 142.1 21.7 .154  18
2019 08 15 03  00 13 33.043   -19 12 41.97  .59186 1.5242 142.2 21.7 .156  18
2019 08 15 04  00 13 34.582   -19 12 58.14  .59170 1.5242 142.2 21.7 .158  18
2019 08 15 05  00 13 36.116   -19 13 14.32  .59155 1.5241 142.2 21.7 .159  18
2019 08 15 06  00 13 37.647   -19 13 30.50  .59140 1.5241 142.2 21.7 .161  18
2019 08 15 07  00 13 39.172   -19 13 46.69  .59124 1.5241 142.3 21.7 .163  19
2019 08 15 08  00 13 40.694   -19 14 02.88  .59109 1.5240 142.3 21.7 .165  19
2019 08 15 09  00 13 42.211   -19 14 19.09  .59094 1.5240 142.3 21.7 .167  19
2019 08 15 10  00 13 43.723   -19 14 35.29  .59078 1.5240 142.4 21.7 .169  19
2019 08 15 11  00 13 45.231   -19 14 51.50  .59063 1.5239 142.4 21.7 .171  19
2019 08 15 12  00 13 46.735   -19 15 07.72  .59048 1.5239 142.4 21.7 .173  19
2019 08 15 13  00 13 48.234   -19 15 23.94  .59032 1.5239 142.4 21.7 .175  19
2019 08 15 14  00 13 49.729   -19 15 40.17  .59017 1.5239 142.5 21.7 .177  19
2019 08 15 15  00 13 51.220   -19 15 56.40  .59002 1.5238 142.5 21.7 .179  19
2019 08 15 16  00 13 52.706   -19 16 12.64  .58987 1.5238 142.5 21.7 .181  19
2019 08 15 17  00 13 54.187   -19 16 28.89  .58971 1.5238 142.5 21.7 .183  19
2019 08 15 18  00 13 55.664   -19 16 45.13  .58956 1.5237 142.6 21.7 .185  19
2019 08 15 19  00 13 57.137   -19 17 01.39  .58941 1.5237 142.6 21.7 .187  19
2019 08 15 20  00 13 58.605   -19 17 17.65  .58926 1.5237 142.6 21.7 .189  20
2019 08 15 21  00 14 00.069   -19 17 33.91  .58911 1.5236 142.7 21.7 .191  20
2019 08 15 22  00 14 01.529   -19 17 50.18  .58896 1.5236 142.7 21.7 .193  20
2019 08 15 23  00 14 02.984   -19 18 06.45  .58881 1.5236 142.7 21.7 .195  20
2019 08 16 00  00 14 04.434   -19 18 22.73  .58866 1.5236 142.7 21.7 .197  20
2019 08 16 01  00 14 05.880   -19 18 39.01  .58851 1.5235 142.8 21.7 .199  20
2019 08 16 02  00 14 07.322   -19 18 55.30  .58836 1.5235 142.8 21.7 .201  20
2019 08 16 03  00 14 08.759   -19 19 11.59  .58821 1.5235 142.8 21.7 .203  20
2019 08 16 04  00 14 10.192   -19 19 27.89  .58806 1.5234 142.9 21.7 .205  20
2019 08 16 05  00 14 11.620   -19 19 44.19  .58791 1.5234 142.9 21.7 .207  20
2019 08 16 06  00 14 13.044   -19 20 00.50  .58776 1.5234 142.9 21.7 .209  20
2019 08 16 07  00 14 14.463   -19 20 16.81  .58761 1.5233 142.9 21.7 .211  20
2019 08 16 08  00 14 15.878   -19 20 33.12  .58746 1.5233 143.0 21.7 .213  20
2019 08 16 09  00 14 17.289   -19 20 49.44  .58731 1.5233 143.0 21.7 .215  20
2019 08 16 10  00 14 18.695   -19 21 05.77  .58716 1.5233 143.0 21.7 .217  21
2019 08 16 11  00 14 20.096   -19 21 22.10  .58702 1.5232 143.0 21.7 .219  21
2019 08 16 12  00 14 21.493   -19 21 38.43  .58687 1.5232 143.1 21.7 .221  21
2019 08 16 13  00 14 22.886   -19 21 54.77  .58672 1.5232 143.1 21.7 .223  21
2019 08 16 14  00 14 24.274   -19 22 11.11  .58657 1.5231 143.1 21.7 .225  21
2019 08 16 15  00 14 25.658   -19 22 27.45  .58643 1.5231 143.2 21.7 .228  21
2019 08 16 16  00 14 27.037   -19 22 43.80  .58628 1.5231 143.2 21.7 .230  21
2019 08 16 17  00 14 28.412   -19 23 00.15  .58613 1.5231 143.2 21.7 .232  21
2019 08 16 18  00 14 29.782   -19 23 16.51  .58598 1.5230 143.2 21.7 .234  21
2019 08 16 19  00 14 31.148   -19 23 32.87  .58584 1.5230 143.3 21.7 .236  21